TimeMST,TemperatureF,Dew PointF,Humidity,Sea Level PressureIn,VisibilityMPH,Wind Direction,Wind SpeedMPH,Gust SpeedMPH,PrecipitationIn,Events,Conditions,WindDirDegrees,DateUTC
12:56 AM,43.0,24.1,47,29.48,-9999.0,SW,11.5,-,N/A,,Unknown,230,2013-01-11 07:56:00
1:56 AM,44.1,23.0,43,29.47,-9999.0,SW,8.1,-,N/A,,Unknown,230,2013-01-11 08:56:00
2:56 AM,46.9,21.0,36,29.44,-9999.0,WSW,21.9,28.8,N/A,,Unknown,240,2013-01-11 09:56:00
3:56 AM,46.0,21.0,37,29.44,-9999.0,WSW,19.6,25.3,N/A,,Unknown,240,2013-01-11 10:56:00
4:56 AM,44.1,23.0,43,29.43,-9999.0,WSW,18.4,24.2,N/A,,Unknown,240,2013-01-11 11:56:00
5:56 AM,42.1,25.0,51,29.44,-9999.0,WSW,12.7,-,N/A,,Unknown,250,2013-01-11 12:56:00
6:56 AM,44.1,25.0,47,29.43,-9999.0,SW,17.3,38.0,N/A,,Unknown,230,2013-01-11 13:56:00
7:56 AM,46.0,26.1,46,29.42,-9999.0,SW,24.2,40.3,N/A,,Unknown,230,2013-01-11 14:56:00
8:56 AM,48.9,27.0,43,29.40,-9999.0,SW,26.5,39.1,N/A,,Unknown,230,2013-01-11 15:56:00
9:56 AM,52.0,24.1,34,29.38,-9999.0,SW,32.2,48.3,N/A,,Unknown,230,2013-01-11 16:56:00
10:56 AM,53.1,19.0,26,29.37,-9999.0,WSW,34.5,50.6,N/A,,Unknown,240,2013-01-11 17:56:00
11:56 AM,53.1,18.0,25,29.34,-9999.0,WSW,33.4,43.7,N/A,,Unknown,250,2013-01-11 18:56:00
12:56 PM,48.9,7.0,18,29.37,-9999.0,West,27.6,46.0,N/A,,Unknown,260,2013-01-11 19:56:00
1:56 PM,46.9,-0.0,14,29.42,-9999.0,West,17.3,32.2,N/A,,Unknown,260,2013-01-11 20:56:00
2:56 PM,45.0,-4.0,13,29.47,-9999.0,WNW,24.2,33.4,N/A,,Unknown,300,2013-01-11 21:56:00
3:56 PM,42.1,-4.0,14,29.52,-9999.0,WNW,19.6,27.6,N/A,,Unknown,300,2013-01-11 22:56:00
4:56 PM,36.0,-2.0,20,29.60,-9999.0,NW,15.0,23.0,N/A,,Unknown,320,2013-01-11 23:56:00
5:56 PM,30.9,-2.0,24,29.68,-9999.0,NW,12.7,-,N/A,,Unknown,320,2013-01-12 00:56:00
6:56 PM,28.9,-0.9,28,29.71,-9999.0,WNW,12.7,-,N/A,,Unknown,290,2013-01-12 01:56:00
7:56 PM,28.0,-0.9,29,29.75,-9999.0,NW,19.6,27.6,N/A,,Unknown,310,2013-01-12 02:56:00
8:56 PM,25.0,-0.0,34,29.76,-9999.0,WNW,11.5,-,N/A,,Unknown,300,2013-01-12 03:56:00
9:56 PM,26.1,-2.0,30,29.77,-9999.0,WNW,17.3,24.2,N/A,,Unknown,300,2013-01-12 04:56:00
10:56 PM,24.1,-2.9,31,29.78,-9999.0,NW,12.7,-,N/A,,Unknown,310,2013-01-12 05:56:00
11:56 PM,19.9,-0.9,40,29.80,-9999.0,North,13.8,-,N/A,,Unknown,360,2013-01-12 06:56:00